Weather History for PHLI - June, 2013

Change the Weather History Date:

Saturday, June 22, 2013

  Actual Average Record
Temperature  
Mean Temperature 78 °F 79 °F  
Max Temperature 83 °F 84 °F 87 °F (1981)
Min Temperature 72 °F 73 °F 68 °F (1955)
Degree Days  
Heating Degree Days 0 0  
Month to date heating degree days 0 0  
Since 1 June heating degree days 0 0  
Since 1 July heating degree days 0 0  
Cooling Degree Days 13 14  
Month to date cooling degree days 296 283  
Year to date cooling degree days 1378 1522  
Since 1 June cooling degree days 296 283  
Growing Degree Days 28 (Base 50)    
Moisture  
Dew Point 69 °F    
Average Humidity 75    
Maximum Humidity 87    
Minimum Humidity 62    
Precipitation  
Precipitation 0.02 in 0.06 in 0.33 in (1994)
Month to date precipitation 0.20 1.16  
Year to date precipitation 15.00 17.00  
Snow  
Snow 0.00 in - - ()
Month to date snowfall 0.0  
Since 1 June snowfall 0.0  
Since 1 July snowfall 0.0  
Snow Depth 0.00 in    
Sea Level Pressure  
Sea Level Pressure 30.10 in    
Wind  
Wind Speed 17 mph (NE)    
Max Wind Speed 26 mph    
Max Gust Speed 31 mph    
Visibility 10 miles    
Events Rain    
T = Trace of Precipitation, MM = Missing Value Source: NWS Daily Summary

Daily Weather History Graph

Daily Weather History Graph

Search for Another Location

Airport or City:

Trip Planner

Search our weather history database for the weather conditions in past years. The results will help you decide how hot, cold, wet, or windy it might be!

Date:

Astronomy

Jun. 22, 2013 Rise Set
Actual Time 5:55 AM HST 7:23 PM HST
Civil Twilight 5:30 AM HST 7:48 PM HST
Nautical Twilight 5:00 AM HST 8:18 PM HST
Astronomical Twilight 4:29 AM HST 8:49 PM HST
Moon 6:57 PM HST (6/22) 5:13 AM HST (6/22)
Length of Visible Light 14h 18m
Length of Day
13h 28m
Full, 100% of the Moon is Illuminated
Jun 22
Full
Jun 23
Full
Jun 29
Last Quarter
Jul 7
New
Jul 15
First Quarter

Hourly Weather History & Observations

Time (HST) Temp. Heat Index Dew Point Humidity Pressure Visibility Wind Dir Wind Speed Gust Speed Precip Events Conditions
12:19 AM 73.4 °F - 69.8 °F 88% 30.09 in 10.0 mi NE 15.0 mph 20.7 mph 0.00 in   Overcast
12:53 AM 73.9 °F - 70.0 °F 87% 30.08 in 10.0 mi NE 11.5 mph - 0.00 in   Overcast
1:13 AM 75.2 °F - 71.6 °F 89% 30.08 in 10.0 mi ENE 12.7 mph - N/A   Overcast
1:53 AM 75.0 °F - 68.0 °F 79% 30.06 in 10.0 mi East 18.4 mph - N/A   Overcast
2:53 AM 75.0 °F - 68.0 °F 79% 30.05 in 10.0 mi ENE 18.4 mph - N/A   Overcast
3:53 AM 75.0 °F - 66.0 °F 73% 30.05 in 10.0 mi ENE 18.4 mph - N/A   Overcast
4:53 AM 75.0 °F - 66.9 °F 76% 30.05 in 10.0 mi ENE 18.4 mph - N/A   Overcast
5:53 AM 75.0 °F - 66.9 °F 76% 30.07 in 10.0 mi ENE 15.0 mph - N/A   Overcast
6:53 AM 75.9 °F - 66.9 °F 74% 30.08 in 10.0 mi ENE 19.6 mph - N/A   Mostly Cloudy
7:53 AM 78.1 °F - 66.9 °F 68% 30.09 in 10.0 mi ENE 18.4 mph - N/A   Partly Cloudy
8:53 AM 80.1 °F 82.1 °F 66.0 °F 62% 30.10 in 10.0 mi ENE 16.1 mph - N/A   Scattered Clouds
9:53 AM 81.0 °F 83.8 °F 68.0 °F 65% 30.11 in 10.0 mi NE 17.3 mph - N/A   Mostly Cloudy
10:53 AM 75.0 °F - 70.0 °F 84% 30.12 in 8.0 mi ENE 12.7 mph - 0.01 in Rain Light Rain
11:53 AM 82.0 °F 84.9 °F 68.0 °F 62% 30.11 in 10.0 mi ENE 18.4 mph - 0.00 in   Mostly Cloudy
12:53 PM 79.0 °F - 68.0 °F 69% 30.11 in 10.0 mi NE 13.8 mph - 0.00 in   Overcast
1:53 PM 80.1 °F 82.9 °F 69.1 °F 69% 30.09 in 10.0 mi ENE 20.7 mph 26.5 mph N/A   Overcast
2:23 PM 78.8 °F - 69.8 °F 74% 30.10 in 10.0 mi NE 17.3 mph - 0.00 in   Overcast
2:37 PM 75.2 °F - 71.6 °F 89% 30.10 in 10.0 mi NE 16.1 mph - 0.01 in Rain Light Rain
2:53 PM 78.1 °F - 72.0 °F 81% 30.08 in 10.0 mi NE 16.1 mph - 0.01 in   Mostly Cloudy
3:53 PM 81.0 °F 83.8 °F 68.0 °F 65% 30.08 in 10.0 mi ENE 17.3 mph - N/A   Partly Cloudy
4:53 PM 80.1 °F 82.7 °F 68.0 °F 67% 30.07 in 10.0 mi ENE 16.1 mph - N/A   Scattered Clouds
5:53 PM 75.0 °F - 68.0 °F 79% 30.09 in 10.0 mi ENE 19.6 mph - 0.00 in   Scattered Clouds
6:53 PM 75.0 °F - 68.0 °F 79% 30.11 in 10.0 mi NE 18.4 mph - N/A   Clear
7:53 PM 75.0 °F - 68.0 °F 79% 30.12 in 10.0 mi NE 19.6 mph - N/A   Scattered Clouds
8:36 PM 75.2 °F - 69.8 °F 83% 30.14 in 10.0 mi NE 18.4 mph - N/A   Mostly Cloudy
8:53 PM 75.0 °F - 69.1 °F 82% 30.14 in 10.0 mi NE 17.3 mph - N/A   Scattered Clouds
9:07 PM 75.2 °F - 69.8 °F 83% 30.15 in 10.0 mi NE 18.4 mph - N/A   Mostly Cloudy
9:53 PM 75.0 °F - 69.1 °F 82% 30.15 in 10.0 mi NE 19.6 mph - N/A   Overcast
10:07 PM 73.4 °F - 69.8 °F 88% 30.16 in 10.0 mi NE 19.6 mph - N/A   Overcast
10:53 PM 73.9 °F - 70.0 °F 87% 30.16 in 10.0 mi NE 16.1 mph - 0.00 in   Overcast
11:37 PM 75.2 °F - 69.8 °F 83% 30.16 in 10.0 mi ENE 17.3 mph - 0.00 in   Mostly Cloudy
11:48 PM 73.4 °F - 69.8 °F 88% 30.16 in 10.0 mi NE 17.3 mph - 0.00 in   Mostly Cloudy
11:53 PM 73.9 °F - 69.1 °F 85% 30.15 in 10.0 mi NE 17.3 mph - 0.00 in   Mostly Cloudy